BREEZE-M DEB, 32025

Orbit data source: Space-Track

BREEZE-M DEB, 32025 is space debris in HEO originally from a launch on Tue, 28 Feb 2006 UTC launched from the Tyuratam Missile And Space Complex (TTMTR). Debris objects in space refer to the collection of defunct objects orbiting the Earth. Examples of debris include non-operational satellites, rocket bodies, and fragments generated from explosions, collisions, or faulty payload assembly.

Loading next visibility...
Identifier
32025, 2006-006C
Orbit
HEO
Country
Flag of CISCIS
Related business
Manufacturer
Khrunichev
Mission
Spacecraft
Bus & Motor
Unknown
Mass
Unknown
Launch date (UTC)
2006-02-28 (20 years ago)
Launch vehicle
Unknown
Launch site
Tyuratam Missile And Space Complex (TTMTR)
Object type
Payload
Rocket body
Debris
Shape & HBR
Unknown shape, 1.7 m
Radar Cross Section
Large (>1 m²)

Expand to show TLE details & history
Last TLE update: 16 hours ago

TLE from 16 hours ago
0 BREEZE-M DEB
1 32025U 06006C   26162.54095891  .00000536  00000-0  66078-3 0  9996
2 32025  51.6490 146.4253 5084826  37.9100 348.8213  5.26831448369689
Epoch: 2026-06-11T12:58Z
TLE epoch observation values (Epoch: 2026-06-11T12:58:58.849Z)
Latitude
-0.00027°
Longitude
51.78135°
Altitude
1,003.765 km
Speed
8.913 km/s
True Right ascension
09h 45m 38s
True Declination
0° 00' 01"
Sunlit
Object was in daylight at epoch
Visualization orbit readout
Latitude
Unknown
Longitude
Unknown
Altitude
Unknown
Speed
Unknown
Apparent Right ascension
Unknown
Apparent Declination
Unknown
Sunlit
N/A
Visualization observer readout
Local Sidereal Time
15:30:37
Azimuth
Unknown
Elevation
Unknown
Doppler factor
Unknown
Orbital elements
Apogee altitude
14,668.04 km
Perigee altitude
479.458 km
Semi-major axis
13,951.886 km
Eccentricity
0.50848
Inclination
51.649°
RAAN
146.4253°
Arg. of periapsis
37.91°
True anomaly
322.10504°
Mean anomaly
348.8213°
Eccentric anomaly
337.82517°
Mean motion
1.31702 °/min
Orbital period
273.34 mins
BSTAR
0.00066078
Loading maneuver chart data...
Computing Atmospheric mass density...
Loading historical data...
Loading historical data...
Loading historical data...
Loading historical data...
Loading historical data...
Loading historical data...
Loading historical data...

Documentation

Showing up to 5 results
|